リニア彗星

C/2006 M1 ( LINEAR )

English version
Home page
Total 6,336 html files since Dec. 4, 1995
Updated on October 15, 2008

---------------------------------------------------------------------

・ プロフィール

発見日 2006年6月18日
発見光度 18.4等
発見者 Lincoln Laboratory Near-Earth Asteroid Research project

・ 写真集

・ 軌道要素

The following orbital elements are taken from MPC 60664:

Epoch 2007 Mar. 1.0 TT = JDT 2454160.5
T 2007 Feb. 13.9213 TT                                  MPC
q   3.556200             (2000.0)            P               Q
z  +0.006484       Peri.  122.8940      +0.7159035      +0.2764663
 +/-0.000001       Node   231.6152      -0.1578333      +0.9585751
e   0.976940       Incl.   54.8768      +0.6801256      -0.0685580
From 452 observations 2005 May 11-2007 Sept. 16, mean residual 0".5.

・ 星図

・ 光度変化

        m1 = 11.2 + 5 logΔ + 5.0 log r

---------------------------------------------------------------------

軌道要素はMPCのEphemerides and Orbital Elementsに掲載されたものです。
星図は StellaNavigator Ver.2.0 for Windows (アストロアーツ 編著 / アスキー出版局刊) で作成したものです。
光度グラフはComet for Windowsで作成したものです。

---------------------------------------------------------------------

Copyright(C) 1995-2008 Seiichi Yoshida (comet@aerith.net). All rights reserved.